This demonstration page uses our WeatherBlox Daily Observations layout. Learn more.

Left ArrowRight Arrow

Hourly Observations for February 22, 2017

Temp ( °F °C ) Dew Point ( °F °C ) Humidity (%) Winds ( mph kmh ) Pressure ( in mb ) Visibility ( mi km ) Precip ( " mm )
12:53 am 00:53 Clear 51 10.6 32 0 48 48 NNW 5 7 29.95 1014 10 16 0.00 0.00
1:53 am 01:53 Clear 47 8.3 32 0 56 56 N 9 15 29.95 1014 10 16 0.00 0.00
2:53 am 02:53 undefined 48 8.9 31 -0.6 52 52 undefined N/A 29.93 1014 N/A 0.00 0.00
3:53 am 03:53 Clear 43 6.1 31 -0.6 63 63 N 6 9 29.93 1014 10 16 0.00 0.00
4:53 am 04:53 Clear 42 5.6 30 -1.1 62 62 N 3 6 29.93 1014 10 16 0.00 0.00
5:53 am 05:53 Clear 41 5 30 -1.1 65 65 NNW 3 6 29.94 1014 10 16 0.00 0.00
6:53 am 06:53 Clear 39 3.9 29 -1.7 67 67 S 3 6 29.95 1014 10 16 0.00 0.00
7:53 am 07:53 Sunny 40 4.4 30 -1.1 68 68 NW 3 6 29.97 1015 10 16 0.00 0.00
8:53 am 08:53 Sunny 53 11.7 33 0.6 47 47 N 3 6 29.96 1015 10 16 0.00 0.00
9:53 am 09:53 Sunny 66 18.9 34 1.1 30 30 SW 3 6 29.94 1014 10 16 0.00 0.00
10:53 am 10:53 Sunny 73 22.8 33 0.6 23 23 WSW 7 11 29.92 1013 10 16 0.00 0.00
11:53 am 11:53 Sunny 75 23.9 32 0 21 21 W 8 13 29.90 1013 10 16 0.00 0.00
12:53 pm 12:53 undefined 79 26.1 30 -1.1 17 17 undefined N/A 29.87 1012 N/A 0.00 0.00
1:53 pm 13:53 undefined 83 28.3 27 -2.8 13 13 W 12 19 29.83 1010 N/A 0.00 0.00
2:53 pm 14:53 Sunny 85 29.4 27 -2.8 12 12 WSW 10 17 29.76 1008 10 16 0.00 0.00
3:53 pm 15:53 Sunny 87 30.6 20 -6.7 8 8 W 16 26 29.74 1007 10 16 0.00 0.00
4:53 pm 16:53 Sunny 86 30 23 -5 10 10 W 18 30 29.72 1007 10 16 0.00 0.00
5:53 pm 17:53 Sunny 85 29.4 22 -5.6 10 10 WSW 15 24 29.71 1006 10 16 0.00 0.00
6:53 pm 18:53 Clear 77 25 23 -5 13 13 SW 6 9 29.72 1006 10 16 0.00 0.00
7:53 pm 19:53 Clear 71 21.7 23 -5 16 16 undefined N/A 29.72 1007 9 14 0.00 0.00
8:53 pm 20:53 undefined N/A N/A N/A undefined N/A N/A N/A 0.00 0.00
9:53 pm 21:53 undefined N/A N/A N/A undefined N/A N/A N/A 0.00 0.00
10:53 pm 22:53 undefined N/A N/A N/A undefined N/A N/A N/A 0.00 0.00
11:53 pm 23:53 Clear 60 15.6 27 -2.8 28 28 WSW 7 11 29.67 1005 10 16 0.00 0.00

Powered by AerisWeather